Flag for India Weather past 2 weeks in Vasai-Virar, Maharashtra, India

Now
75 °F

Clear.


Feels Like: 78 °F
Forecast: 67 / 83 °F
Wind: 5 mph from Northwest

Location: Bombay / Santacruz

Current Time: Mar 3, 2015 at 9:43:15 PM

Latest Report: Mar 3, 2015 at 8:40 PM


Visibility: 3 mi

Pressure: 29.95 "Hg

Humidity: 47%

Dew point: 54 °F

Location of Vasai-VirarLocation

Historic Weather in Vasai-Virar — Graph

°F

Vasai-Virar temperature yesterday

Maximum temperature yesterday: 81 °F (at 12:40 PM)
Minimum temperature yesterday: 72 °F (at 3:40 AM)
Average temperature yesterday: 77 °F

Past Weeks' High & Low Weather Summary

 TemperatureHumidityPressure
High102 °F (Feb 21, 3:40 PM)100% (Feb 27, 4:40 AM)30.04 "Hg (Feb 27, 4:40 AM)
Low68 °F (Feb 28, 11:40 PM)12% (Feb 21, 3:40 PM)29.71 "Hg (Mar 1, 4:40 PM)
Average80 °F61%29.87 "Hg
* Reported Feb 16 7:40 PM — Mar 3 7:40 PM, Vasai-Virar, Weather by CustomWeather, © 2015

Note: Actual official high and low records may vary slightly from our data, if they occured in-between our weather recording intervals... More about our weather records

Advertising

Vasai-Virar weather history for previous 24 hours

 ConditionsComfort  
Time TempWeatherWind HumidityBarometerVisibility
7:40 PM
Tue, Mar 3
77 °FClear.8 mph44%29.92 "Hg3 mi
6:40 PM77 °FClear.14 mph44%29.89 "Hg4 mi
5:40 PM79 °FClear.8 mph42%29.89 "Hg4 mi
4:40 PM79 °FClear.16 mph39%29.89 "Hg4 mi
3:40 PM77 °FPassing clouds.12 mph36%29.89 "Hg4 mi
1:40 PM81 °FScattered clouds.14 mph39%29.95 "Hg2 mi
12:40 PM79 °FScattered clouds.7 mph42%29.98 "Hg2 mi
11:40 AM77 °FScattered clouds.7 mph44%30.01 "Hg2 mi
10:40 AM77 °FScattered clouds.8 mph44%30.04 "Hg2 mi
9:40 AM75 °FScattered clouds.7 mph47%30.04 "Hg2 mi
8:40 AM72 °FScattered clouds.5 mph57%30.01 "Hg1 mi
7:40 AM70 °FScattered clouds.3 mph60%29.98 "Hg1 mi
6:40 AM70 °FHaze.No wind64%29.95 "Hg1 mi
5:40 AM70 °FHaze.No wind69%29.92 "Hg1 mi
4:40 AM70 °FHaze.No wind69%29.92 "Hg2 mi
3:40 AM70 °FHaze.No wind64%29.92 "Hg2 mi
2:40 AM70 °FHaze.No wind73%29.95 "Hg2 mi
1:40 AM72 °FHaze.No wind61%29.95 "Hg2 mi
12:40 AM72 °FHaze.3 mph65%29.98 "Hg2 mi
10:40 PM
Mon, Mar 2
73 °FPassing clouds.No wind61%29.98 "Hg2 mi
9:40 PM75 °FPassing clouds.5 mph54%29.98 "Hg2 mi
Weather by CustomWeather, © 2015

See weather overviewHow to use our weather pages